Regional Weather Roundup
Issued by NWS

Home | Current Version | Previous Version | Graphics & Text | Print | Product List | Glossary Off
Versions: 1 2 3 4 5 6 7 8 9 10 11 12 13 14 15 16 17 18 19 20 21 22 23 24 25 26 27 28 29 30 31 32 33 34 35 36 37 38 39 40 41 42 43 44 45 46 47 48 49 50

391
ASUS43 KTOP 261208
RWRKS

WEATHER ROUNDUP FOR KANSAS
NATIONAL WEATHER SERVICE GOODLAND KS
700 AM CDT TUE SEP 26 2017

NOTE:  "FAIR" INDICATES FEW OR NO CLOUDS BELOW 12,000 FEET WITH NO
SIGNIFICANT WEATHER AND/OR OBSTRUCTIONS TO VISIBILITY.

KSZ001>006-013>018-027>032-041>047-261300-
NORTHWEST KANSAS

CITY           SKY/WX    TMP DP  RH WIND       PRES   REMARKS
GOODLAND       CLOUDY    46  45  96 N6        30.16S
6HR MIN TEMP:  45; 6HR MAX TEMP:  47;

HAYS           CLOUDY    51  48  89 N14       30.12R
HILL CITY      PTCLDY    49  48  97 NW3       30.15R
6HR MIN TEMP:  49; 6HR MAX TEMP:  52;

RUSSELL        CLOUDY    51  49  92 N14       30.10R
6HR MIN TEMP:  51; 6HR MAX TEMP:  54;

$$

KSZ061>065-074>080-084>089-261300-
SOUTHWEST KANSAS

CITY           SKY/WX    TMP DP  RH WIND       PRES   REMARKS
DODGE CITY     CLOUDY    50  49  96 N13       30.10R
6HR MIN TEMP:  50; 6HR MAX TEMP:  53;

ELKHART          N/A     49  50 100 N9          N/A
GARDEN CITY    CLOUDY    49  47  93 N15       30.11F
6HR MIN TEMP:  49; 6HR MAX TEMP:  52;

GREAT BEND     CLOUDY    51  49  92 N15G22    30.10R
LIBERAL        CLOUDY    52  50  93 N10       30.12R
PRATT          CLOUDY    51  50  93 N16       30.09R
6HR MIN TEMP:  51; 6HR MAX TEMP:  56;

$$

KSZ066>073-081>083-090>101-261300-
SOUTHEAST KANSAS

CITY           SKY/WX    TMP DP  RH WIND       PRES   REMARKS
CHANUTE        LGT RAIN  67  65  93 N8        30.01R
6HR MIN TEMP:  67; 6HR MAX TEMP:  70;

COFFEYVILLE    CLOUDY    67  66  97 N8        29.99R
6HR MIN TEMP:  66; 6HR MAX TEMP:  70; 6HR PCP:  0.46;

HUTCHINSON     CLOUDY    55  55 100 N14G23    30.06R
6HR MIN TEMP:  55; 6HR MAX TEMP:  60;

NEWTON         CLOUDY    55  55 100 NW14      30.07R
PARSONS        CLOUDY    67  65  93 N3        30.01R
6HR MIN TEMP:  66; 6HR MAX TEMP:  70; 6HR PCP:  0.59;

WICHITA INTL   CLOUDY    59  58  96 N12       30.04R
6HR MIN TEMP:  59; 6HR MAX TEMP:  65; 6HR PCP:  0.02;

WICHITA JABRA  CLOUDY    59  59 100 N12       30.04R
6HR MIN TEMP:  59; 6HR MAX TEMP:  63; 6HR PCP: TRACE;

WICHITA MCCONL CLOUDY    59  57  94 N10       30.04R
WINFIELD       CLOUDY    64  63  96 N9        30.03R
6HR MIN TEMP:  64; 6HR MAX TEMP:  66; 6HR PCP:  0.09;

$$

KSZ007>012-019>026-033>040-048>060-102>105-261300-
NORTHEAST KANSAS

CITY           SKY/WX    TMP DP  RH WIND       PRES   REMARKS
CONCORDIA      CLOUDY    52  52 100 N8        30.09R
6HR MIN TEMP:  52; 6HR MAX TEMP:  56; 6HR PCP:  0.01;

EMPORIA        CLOUDY    64  63  96 NW6       30.02R FOG
6HR MIN TEMP:  64; 6HR MAX TEMP:  65; 6HR PCP:  0.05;

LAWRENCE       CLOUDY    67  66  97 CALM      30.00R
6HR MIN TEMP:  66; 6HR MAX TEMP:  67; 6HR PCP:  0.21;

MANHATTAN      CLOUDY    58  57  97 VRB6      30.05R
6HR MIN TEMP:  58; 6HR MAX TEMP:  66; 6HR PCP:  0.03;

MARYSVILLE     CLOUDY    54  54 100 NW9       30.07R
OLATHE IND     LGT RAIN  65  64  97 CALM      30.01R
6HR MIN TEMP:  65; 6HR MAX TEMP:  67; 6HR PCP:  0.29;

OLATHE EXE     HVY RAIN  64  64 100 CALM      30.01R FOG
6HR MIN TEMP:  64; 6HR MAX TEMP:  67; 6HR PCP:  0.17;

SALINA         CLOUDY    56  53  90 NW14      30.08R
6HR MIN TEMP:  56; 6HR MAX TEMP:  60;

TOPEKA BILLARD CLOUDY    66  66 100 W3        30.00R
6HR MIN TEMP:  66; 6HR MAX TEMP:  67; 6HR PCP:  0.01;

TOPEKA FORBES  CLOUDY    67  66  97 W5        30.01R
6HR MIN TEMP:  67; 6HR MAX TEMP:  68; 6HR PCP:  0.01;

$$




USA.gov is the U.S. government's official web portal to all federal, state and local government web resources and services.